Hourly Data Report for December 11, 2003

TORONTO CITY
ONTARIO

43°40'00.000" N
79°24'00.000" W
112.50 m
6158355
71508
XTO

Download Data

Hourly Data (December 2003)
Hourly Data Report for December 11, 2003
TIME
LST
Temp Definition
°C
Dew Point Definition
°C
Rel Hum Definition
%
Precip. Amount Definition
mm

Wind Dir Definition
10's deg

Wind Spd Definition
km/h
Visibility Definition
km
Stn Press Definition
kPa
Hmdx Definition


Wind Chill Definition


Weather Definition


00:00 5.7 5.4 98   LegendMM LegendMM LegendMM 98.46     LegendNANA
01:00 5.8 5.6 99   LegendMM LegendMM LegendMM 98.37     LegendNANA
02:00 5.8 5.6 99   LegendMM LegendMM LegendMM 98.38     LegendNANA
03:00 5.9 5.7 99   LegendMM LegendMM LegendMM 98.33     LegendNANA
04:00 6.1 5.9 99   LegendMM LegendMM LegendMM 98.31     LegendNANA
05:00 6.9 6.8 99   LegendMM LegendMM LegendMM 98.26     LegendNANA
06:00 6.8 6.5 98   LegendMM LegendMM LegendMM 98.27     LegendNANA
07:00 6.6 6.3 98   LegendMM LegendMM LegendMM 98.27     LegendNANA
08:00 6.7 6.6 99   LegendMM LegendMM LegendMM 98.32     LegendNANA
09:00 6.6 6.4 99   LegendMM LegendMM LegendMM 98.40     LegendNANA
10:00 5.8 3.6 86   LegendMM LegendMM LegendMM 98.56     LegendNANA
11:00 4.8 1.8 81   LegendMM LegendMM LegendMM 98.59     LegendNANA
12:00 3.9 0.1 76   LegendMM LegendMM LegendMM 98.68     LegendNANA
13:00 3.3 -1.3 72   LegendMM LegendMM LegendMM 98.74     LegendNANA
14:00 2.4 -2.6 70   LegendMM LegendMM LegendMM 98.83     LegendNANA
15:00 1.8 -3.6 67   LegendMM LegendMM LegendMM 98.98     LegendNANA
16:00 1.3 -4.2 67   LegendMM LegendMM LegendMM 99.05     LegendNANA
17:00 1.0 -4.1 69   LegendMM LegendMM LegendMM 99.14     LegendNANA
18:00 0.8 -5.1 65   LegendMM LegendMM LegendMM 99.24     LegendNANA
19:00 0.6 -5.3 65   LegendMM LegendMM LegendMM 99.35     LegendNANA
20:00 0.3 -5.4 66   LegendMM LegendMM LegendMM 99.42     LegendNANA
21:00 0.0 -4.5 72   LegendMM LegendMM LegendMM 99.48     LegendNANA
22:00 -0.2 -4.4 73   LegendMM LegendMM LegendMM 99.55     LegendNANA
23:00 -0.4 -4.7 73   LegendMM LegendMM LegendMM 99.64     LegendNANA

Notes on Data Quality.

Legend

  • E = Estimated
  • M = Missing
  • NA = Not Available*
  • [empty] = Indicates an unobserved value
Date modified: